MIDAS 4 DEB, 27478

Orbit data source: Space-Track

MIDAS 4 DEB, 27478 is space debris in LEO originally from a launch on Sat, 21 Oct 1961 UTC launched from the Air Force Western Test Range (AFWTR). Debris objects in space refer to the collection of defunct objects orbiting the Earth. Examples of debris include non-operational satellites, rocket bodies, and fragments generated from explosions, collisions, or faulty payload assembly.

Loading next visibility...
Identifier
27478, 1961-028H
Orbit
LEO
Country
Flag of USUS
Related business
Manufacturer
Unknown
Mission
Spacecraft
Bus & Motor
Unknown
Mass
Unknown
Launch date (UTC)
1961-10-21 (64 years ago)
Launch vehicle
Unknown
Launch site
Air Force Western Test Range (AFWTR)
Object type
Payload
Rocket body
Debris
Shape & HBR
Unknown shape, 1.1 m
Radar Cross Section
Medium (>0.1 m² and <1 m²)

Expand to show TLE details & history
Last TLE update: 1 week ago

TLE from 1 week ago
0 MIDAS 4 DEB
1 27478U 61028H   25281.17824815 -.00000050  00000-0 -20612-1 0  9998
2 27478  95.8352 165.3300 0277765 217.5246 305.8289  8.66669795568951
Epoch: 2025-10-08T04:16Z
TLE epoch observation values (Epoch: 2025-10-08T04:16:40.640Z)
Latitude
19.17403°
Longitude
-93.86747°
Altitude
3,477.541 km
Speed
6.411 km/s
True Right ascension
23h 09m 26s
True Declination
19° 05' 49"
Sunlit
Object was in full shadow at epoch
Visualization orbit readout
Latitude
Unknown
Longitude
Unknown
Altitude
Unknown
Speed
Unknown
Apparent Right ascension
Unknown
Apparent Declination
Unknown
Sunlit
N/A
Visualization observer readout
Local Sidereal Time
00:27:38
Azimuth
Unknown
Elevation
Unknown
Doppler factor
Unknown
Orbital elements
Apogee altitude
3,909.267 km
Perigee altitude
3,353.216 km
Semi-major axis
10,009.378 km
Eccentricity
0.02778
Inclination
95.8352°
RAAN
165.33°
Arg. of periapsis
217.5246°
True anomaly
303.1957°
Mean anomaly
305.8289°
Eccentric anomaly
304.5176°
Mean motion
2.16737 °/min
Orbital period
166.1 mins
BSTAR
-0.020612
Loading maneuver chart data...
Computing Atmospheric mass density...
Loading historical data...
Loading historical data...
Loading historical data...
Loading historical data...
Loading historical data...
Loading historical data...
Loading historical data...

Documentation

Showing up to 5 results
|